Regional Weather Roundup
Issued by NWS

Home | Current Version | Previous Version | Graphics & Text | Print | Product List | Glossary On
Versions: 1 2 3 4 5 6 7 8 9 10 11 12 13 14 15 16 17 18 19 20 21 22 23 24 25 26 27 28 29 30 31 32 33 34 35 36 37 38 39 40 41 42 43 44 45 46 47 48 49 50
000
ASUS43 KOAX 241202
RWRNE

WEATHER ROUNDUP FOR NEBRASKA
NATIONAL WEATHER SERVICE OMAHA NE
600 AM CST WED DEC 24 2014

NOTES: SATELLITE DATA IS BEING USED TO AUGMENT CLOUD COVER ABOVE
       12000 FEET.
       "FAIR" INDICATES FEW OR NO CLOUDS BELOW 12,000 FEET WITH NO
       SIGNIFICANT WEATHER AND/OR OBSTRUCTIONS TO VISIBILITY.

  * THESE STATIONS DO NOT REPORT WEATHER SUCH AS RAIN...SNOW OR FOG.

NEZ001>004-019>022-054>056-241300-
NEBRASKA PANHANDLE

CITY           SKY/WX    TMP DP  RH WIND       PRES   REMARKS
SCOTTSBLUFF    FAIR      11   7  84 N7        29.91F WCI   0
6HR MIN TEMP:   8; 6HR MAX TEMP:  17;

ALLIANCE       FAIR       4   1  88 W7        29.90F WCI  -8
6HR MIN TEMP:   4; 6HR MAX TEMP:  13;

CHADRON        FAIR       4  -1  80 S6        29.90F WCI  -7
6HR MIN TEMP:   2; 6HR MAX TEMP:  11;

SIDNEY         FAIR      17   9  70 W12       29.94F WCI   4
6HR MIN TEMP:   7; 6HR MAX TEMP:  18;

$$

NEZ057>060-069>072-079>082-241300-
SOUTHWEST NEBRASKA

CITY           SKY/WX    TMP DP  RH WIND       PRES   REMARKS
NORTH PLATTE   FAIR      16  13  88 NW8       29.97F WCI   5
6HR MIN TEMP:  15; 6HR MAX TEMP:  23;

IMPERIAL       FAIR      14   9  80 W6        29.98F WCI   5
6HR MIN TEMP:  14; 6HR MAX TEMP:  23;

MCCOOK         FAIR      19  14  81 W14       29.99F WCI   6
6HR MIN TEMP:  19; 6HR MAX TEMP:  26;

$$

NEZ005>010-023>029-035>040-094-241300-
NORTH CENTRAL NEBRASKA

CITY           SKY/WX    TMP DP  RH WIND       PRES   REMARKS
VALENTINE      FAIR      11   8  88 W9        29.92F WCI  -2
6HR MIN TEMP:  10; 6HR MAX TEMP:  20;

BROKEN BOW     FAIR      18  14  84 CALM      29.93F
6HR MIN TEMP:  17; 6HR MAX TEMP:  30;

ORD            CLOUDY    26  22  84 NW12      29.92F WCI  16
6HR MIN TEMP:  26; 6HR MAX TEMP:  28;

$$

NEZ041-046>049-061>064-073>077-083>087-241300-
SOUTH CENTRAL NEBRASKA

CITY           SKY/WX    TMP DP  RH WIND       PRES   REMARKS
GRAND ISLAND   CLOUDY    27  23  85 NW10G21   29.94F WCI  17
6HR MIN TEMP:  27; 6HR MAX TEMP:  30;

HASTINGS       CLOUDY    27  23  85 NW14      29.93S WCI  16
6HR MIN TEMP:  27; 6HR MAX TEMP:  30;

KEARNEY *      MOCLDY    25  21  86 W10       29.94F WCI  15
$$

NEZ011>018-030>034-042>045-241300-
NORTHEAST NEBRASKA

CITY           SKY/WX    TMP DP  RH WIND       PRES   REMARKS
NORFOLK        CLOUDY    28  25  88 NW15      29.91R WCI  16
6HR MIN TEMP:  28; 6HR MAX TEMP:  31;

BLAIR          CLOUDY    33  31  91 NW10G22   29.87F WCI  25
COLUMBUS *     CLOUDY    28  21  74 NW17G24   29.93R WCI  16
TEKAMAH        CLOUDY    33  30  88 NW10      29.89F WCI  25
6HR MIN TEMP:  33; 6HR MAX TEMP:  35;

$$

NEZ050>053-065>068-078-088>093-241300-
SOUTHEAST NEBRASKA

CITY           SKY/WX    TMP DP  RH WIND       PRES   REMARKS
LINCOLN        CLOUDY    32  28  85 NW12      29.91F WCI  23
6HR MIN TEMP:  32; 6HR MAX TEMP:  34; 6HR PCP: TRACE;

OMAHA EPPLEY   DRIZZLE   33  31  92 N15G24    29.89S WCI  23
6HR MIN TEMP:  33; 6HR MAX TEMP:  35; 6HR PCP: TRACE;

FALLS CITY     CLOUDY    34  50 100 NW15G24   29.86R WCI  24
6HR MIN TEMP:  34; 6HR MAX TEMP:  36; 6HR PCP:  0.01;

NEBRASKA CITY  CLOUDY    33  33  99 N15       29.87S WCI  23
$$

NEZ044-045-051>053-067-241300-
OMAHA AREA

CITY           SKY/WX    TMP DP  RH WIND       PRES   REMARKS
OMAHA EPPLEY   DRIZZLE   33  31  92 N15G24    29.89S WCI  23
6HR MIN TEMP:  33; 6HR MAX TEMP:  35; 6HR PCP: TRACE;

BLAIR          CLOUDY    33  31  91 NW10G22   29.87F WCI  25
WAHOO          CLOUDY    32  28  86 N9        29.89F WCI  24
$$


USA.gov is the U.S. government's official web portal to all federal, state and local government web resources and services.